SCP
0 0 0 0 0 0 0 0 0 0 0 0 0 0 0 0 0 0 0 0 0 0 0 0 0 0 0 0 0 0 0 0 0 0 0 0 0 0
0 0 0 0 0 0 0 0 0 0 0 0 0 0 0 0 0 0 0 0 0 0 0 0 0 0 0 0 0 0 0 0 0 0 0 0 0 0
0 0 0 0 0 0 0 0 0 0 0 0 0 0 0 0 0 0 0 0 0 0 0 0 0 0 0 0 0 0 0 0 0 0 0 0 0 0
0 0 0 0 0 0 0 0 0 0 0 0 0 0 0 0 0 0 0 0 0 0 0 0 0 0 0 0 0 0 0 0 0 0 0 0 0 0
0 0 0 0 0 0 0 0 0 0 0 0 0 0 0 0 0 0 0 0 0 0 0 0 0 0 0 0 0 0 0 0 0 0 0 0 0 0
0 0 0 0 0 0 0 0 0 0 0 0 0 0 0 0 0 0 0 0 0 0 0 0 0 0 0 0 0 0 0 0 0 0 0 0 0 0
0 0 0 0 0 0 0 0 0 0 0 0 0 0 0 0 0 0 0 0 0 0 0 0 0 0 0 0 0 0 0 0 0 0 0 0 0 0
0 0 0 0 0 0 0 0 0 0 0 0 0 0 0 0 0 0 0 0 0 0 0 0 0 0 0 0 0 0 0 0 0 0 0 0 0 0
0 0 0 0 0 0 0 0 0 0 0 0 0 0 0 0 0 0 0 0 0 0 0 0 0 0 0 0 0 0 0 0 0 0 0 0 0 0
0 0 0 0 0 0 0 0 0 0 0 0 0 0 0 0 0 0 0 0 0 0 0 0 0 0 0 0 0 0 0 0 0 0 0 0 0 0
0 0 0 0 0 0 0 0 0 0 0 0 0 0 0 0 0 0 0 0 0 0 0 0 0 0 0 0 0 0 0 0 0 0 0 0 0 0
0 0 0 0 0 0 0 0 0 0 0 0 0 0 0 0 0 0 0 0 0 0 0 0 0 0 0 0 0 0 0 0 0 0 0 0 0 0
0 0 0 0 0 0 0 0 0 0 0 0 0 0 0 0 0 0 0 0 0 0 0 0 0 0 0 0 0 0 0 0 0 0 0 0 0 0
0 0 0 0 0 0 0 0 0 0 0 0 0 0 0 0 0 0 0 0 0 0 0 0 0 0 0 0 0 0 0 0 0 0 0 0 0 0
0 0 0 0 0 0 0 0 0 0 0 0 0 0 0 0 0 0 0 0 0 0 0 -0 -0 -0 -0 0 0 0 0 0 0 0 0 0 0 0
0 0 0 0 0 0 0 0 0 0 0 0 0 0 0 0 0 0 0 0 0 0 -0 -0 -0 -0 -0 -0 -0 -0 -0 -0 -0 0 0 0 0 0
0 0 0 0 0 0 0 0 0 0 0 0 0 0 0 0 0 0 0 0 0 0 0 0 0 0 -0 -0 -0 -0 -0 -0 -0 -0 -0 0 -0 -0
0 0 0 0 0 0 0 0 0 0 0 0 0 0 0 0 0 0 0 0 0 0 0 0 0 0 0 0 -0 -0 -0 -0 -0 -0 -0 -0 -0 -0
0 0 0 0 0 0 0 0 0 0 0 0 0 0 0 0 0 0 0 0 0 0 0 0 0 0 0 0 0 0 0 -0 -0 -0 -0 -0 -0 -0
0 0 0 0 0 0 0 0 0 0 0 0 0 0 0 0 0 0 0 0 0 0 0 0 0 0 0 0 0 0 0 -0 -0 -0 -0 -0 -0 -0
0 0 0 0 0 0 0 0 0 0 0 0 0 0 0 0 0 0 0 0 0 0 0 0 0 0 0 0 0 0 0 0 0 -0 -0 -0 -0 -0
0 0 0 0 0 0 0 0 0 0 0 0 0 0 0 0 0 0 0 0 0 0 0 0 0 0 0 0 0 0 0 0 0 -0 -0 -0 -0 -0
0 0 0 0 0 0 0 0 0 0 0 0 0 0 0 0 0 0 0 0 0 0 0 0 0 0 0 0 0 0 0 0 0 0 0 -0 -0 -0
Wind_Speed_500mb
40 37 35 32 30 28 26 26 24 18 17 24 22 18 14 15 17 18 19 23 24 26 28 29 30 31 32 34 34 34 38 41 43 46 49 52 52 48
43 41 39 36 33 31 29 28 29 27 21 24 25 19 16 15 14 15 16 19 22 25 29 31 32 33 33 34 34 36 40 43 46 48 48 49 51 49
47 45 43 39 36 33 31 29 29 28 29 26 26 21 18 15 13 13 14 16 20 23 27 31 33 34 36 36 37 38 42 44 47 46 47 47 49 50
50 48 46 43 40 37 35 33 31 29 28 26 27 24 19 14 12 12 13 15 19 24 28 30 32 33 34 34 35 39 45 47 48 48 47 49 49 50
52 51 49 47 45 41 37 33 29 27 29 28 27 25 21 16 13 12 12 14 15 20 23 27 28 29 30 31 35 39 43 47 49 49 49 49 48 48
55 55 52 50 46 41 36 33 32 38 33 30 29 26 22 18 15 13 12 13 12 15 19 20 23 25 27 28 33 36 38 42 46 47 49 50 49 48
59 58 56 53 51 49 42 40 40 35 35 34 32 28 24 20 17 13 11 10 12 11 16 18 21 24 27 27 29 34 34 37 44 48 49 49 50 49
63 64 62 58 55 52 46 41 39 40 38 35 33 29 25 22 17 14 10 7 3 18 17 17 19 21 27 28 29 30 34 41 45 45 47 50 50 49
67 65 67 64 62 48 49 42 42 39 37 31 30 28 26 22 18 14 11 9 10 14 15 10 17 17 21 25 24 23 40 41 42 44 45 47 51 49
72 70 65 63 60 54 47 42 40 41 39 33 31 28 26 23 17 13 10 9 10 13 12 7 17 21 18 16 11 35 33 35 36 41 42 43 47 48
66 62 59 57 54 52 42 40 44 42 34 31 29 27 25 20 15 12 7 5 5 7 10 16 17 23 13 4 20 26 29 31 34 35 39 43 45 48
60 60 60 60 56 44 51 50 47 39 42 36 31 26 22 17 12 10 9 8 7 5 14 17 15 21 10 9 26 26 33 31 29 31 36 39 44 48
61 62 63 63 54 51 53 49 46 46 40 36 31 28 24 20 17 15 14 13 10 8 13 13 14 17 15 24 25 27 32 34 30 37 37 38 40 42
61 61 63 57 53 53 51 47 45 42 40 39 33 28 26 24 22 20 18 15 10 9 10 10 12 16 20 25 20 32 32 31 31 39 41 42 41 41
60 59 60 55 52 47 46 43 44 42 44 39 33 30 29 27 26 23 20 15 12 10 8 7 9 14 19 22 26 30 35 30 33 39 43 43 43 44
51 50 49 43 46 47 49 52 46 46 43 38 33 31 33 30 29 26 23 18 14 12 9 8 11 14 17 21 25 27 27 26 37 40 44 41 37 36
49 52 53 56 54 54 56 49 51 51 48 41 39 39 34 33 31 28 26 21 17 15 12 11 11 14 18 20 21 23 27 29 35 40 41 41 38 35
61 54 57 59 57 63 64 65 59 54 52 47 42 38 37 37 33 31 27 23 21 17 14 13 13 13 12 10 16 23 26 34 38 39 35 40 44 41
47 59 54 52 58 62 57 59 60 58 51 46 43 42 40 37 36 33 30 27 23 19 16 14 14 17 16 17 18 17 29 33 39 41 40 39 48 52
61 57 60 58 53 56 59 60 60 58 52 47 44 44 43 42 40 37 33 30 25 22 19 17 16 20 21 21 28 26 24 29 34 42 48 51 52 51
59 66 66 61 60 54 54 55 59 56 50 47 45 44 44 42 41 38 34 31 28 26 23 19 21 25 28 31 34 33 32 30 28 36 44 53 55 59
57 64 66 67 63 59 57 53 56 53 52 48 45 41 40 42 42 39 37 34 31 30 29 26 26 28 31 33 36 38 38 39 39 32 30 36 46 48
59 55 57 51 58 54 52 54 58 56 54 50 46 41 39 42 41 41 38 39 38 37 35 34 33 34 34 35 39 41 42 44 44 47 43 38 40 44
Wind_Direction_500mb
241 242 244 248 251 250 246 239 225 216 219 238 241 252 280 312 329 342 348 348 354 353 356 0 1 359 359 360 360 354 349 344 341 337 337 335 335 339
241 243 245 247 247 246 244 239 232 229 225 238 238 246 273 298 316 329 338 343 345 347 349 350 351 353 356 358 358 352 350 346 343 343 341 335 334 336
241 241 242 241 241 240 238 236 234 233 235 236 236 243 263 283 302 315 326 334 336 340 343 346 350 353 358 359 360 354 350 347 347 347 342 338 335 335
240 240 239 238 236 235 235 233 233 232 234 235 234 238 247 260 278 297 316 325 331 334 339 344 347 352 356 359 355 354 351 348 348 346 343 340 339 337
239 237 237 234 232 230 231 232 233 240 240 237 236 239 243 249 264 285 304 318 324 329 339 341 345 354 357 356 349 351 349 349 347 350 347 343 341 339
236 234 233 233 231 226 221 234 245 241 235 232 232 232 235 241 249 266 285 301 313 327 338 344 348 350 353 353 344 344 346 346 350 354 353 347 344 341
236 233 231 229 227 224 238 250 237 235 233 225 221 223 228 234 238 252 268 296 305 319 336 333 338 341 344 346 339 339 342 345 346 350 351 348 349 347
235 232 229 226 228 245 244 224 235 238 232 227 225 225 230 234 243 254 269 285 271 311 331 324 337 344 342 340 336 338 344 342 342 344 345 344 347 349
234 231 229 229 243 228 223 231 230 228 228 229 231 228 227 229 234 244 258 283 296 309 328 325 333 345 339 328 332 336 336 334 336 338 340 340 339 346
245 249 244 242 235 229 227 221 230 232 227 224 223 224 222 223 223 231 248 279 303 318 335 325 328 335 339 329 334 334 337 336 334 333 339 341 337 341
243 242 243 240 232 226 217 219 220 218 220 222 219 216 219 224 222 232 256 288 283 291 307 342 330 339 354 359 333 338 347 344 340 336 338 341 339 338
241 241 237 231 225 211 217 218 218 222 226 216 213 215 215 221 221 228 237 237 260 299 293 344 341 351 349 318 344 353 353 352 348 344 343 342 343 344
241 239 236 230 211 212 218 220 223 227 217 214 214 215 216 224 229 227 225 231 247 262 293 330 340 352 351 329 348 352 356 353 354 351 351 351 347 349
244 241 234 220 206 207 216 219 216 215 212 211 208 208 213 221 227 223 227 237 241 255 289 323 341 352 350 353 343 349 355 355 353 351 352 353 350 349
241 237 228 219 213 209 209 221 210 208 212 210 207 209 215 221 221 221 228 227 233 248 264 300 331 344 349 348 340 348 347 355 349 348 348 350 350 350
228 218 208 209 210 211 201 216 217 212 217 212 206 209 217 217 215 219 219 215 222 240 254 288 318 334 342 345 343 346 349 341 343 344 343 344 347 346
221 215 204 203 200 203 201 201 214 215 217 211 212 219 220 216 215 216 214 212 212 221 245 278 301 317 330 337 339 340 342 345 344 346 344 342 343 342
216 213 213 213 207 210 214 214 217 219 220 219 221 223 220 214 216 216 214 214 217 220 231 248 273 293 313 324 335 338 343 341 342 345 345 337 338 344
220 219 215 215 215 216 216 218 212 213 220 225 225 222 217 216 217 218 218 219 223 232 244 262 284 302 317 320 329 340 337 341 337 338 336 334 333 337
214 224 220 221 221 222 222 221 219 222 225 225 225 221 217 217 217 218 219 223 228 237 245 261 275 285 294 300 306 325 326 332 332 330 331 328 330 335
218 223 230 232 229 228 225 222 223 221 223 225 224 224 222 219 219 222 226 232 236 243 248 257 269 279 288 296 302 313 315 322 323 326 326 324 326 328
227 225 232 233 234 231 224 224 221 221 224 224 225 225 224 225 225 227 231 235 239 246 258 264 268 273 280 286 292 298 307 312 317 318 319 313 313 312
232 232 231 230 230 226 224 224 224 222 224 227 228 228 228 230 231 234 236 240 244 250 256 262 266 270 275 281 287 293 300 304 311 315 315 317 310 306
Wind_Speed_850mb
40 37 35 32 30 28 26 26 24 18 17 24 22 18 14 15 17 18 19 23 24 26 28 29 30 31 32 34 34 34 38 41 43 46 49 52 52 48
43 41 39 36 33 31 29 28 29 27 21 24 25 19 16 15 14 15 16 19 22 25 29 31 32 33 33 34 34 36 40 43 46 48 48 49 51 49
47 45 43 39 36 33 31 29 29 28 29 26 26 21 18 15 13 13 14 16 20 23 27 31 33 34 36 36 37 38 42 44 47 46 47 47 49 50
50 48 46 43 40 37 35 33 31 29 28 26 27 24 19 14 12 12 13 15 19 24 28 30 32 33 34 34 35 39 45 47 48 48 47 49 49 50
52 51 49 47 45 41 37 33 29 27 29 28 27 25 21 16 13 12 12 14 15 20 23 27 28 29 30 31 35 39 43 47 49 49 49 49 48 48
55 55 52 50 46 41 36 33 32 38 33 30 29 26 22 18 15 13 12 13 12 15 19 20 23 25 27 28 33 36 38 42 46 47 49 50 49 48
59 58 56 53 51 49 42 40 40 35 35 34 32 28 24 20 17 13 11 10 12 11 16 18 21 24 27 27 29 34 34 37 44 48 49 49 50 49
63 64 62 58 55 52 46 41 39 40 38 35 33 29 25 22 17 14 10 7 3 18 17 17 19 21 27 28 29 30 34 41 45 45 47 50 50 49
67 65 67 64 62 48 49 42 42 39 37 31 30 28 26 22 18 14 11 9 10 14 15 10 17 17 21 25 24 23 40 41 42 44 45 47 51 49
72 70 65 63 60 54 47 42 40 41 39 33 31 28 26 23 17 13 10 9 10 13 12 7 17 21 18 16 11 35 33 35 36 41 42 43 47 48
66 62 59 57 54 52 42 40 44 42 34 31 29 27 25 20 15 12 7 5 5 7 10 16 17 23 13 4 20 26 29 31 34 35 39 43 45 48
60 60 60 60 56 44 51 50 47 39 42 36 31 26 22 17 12 10 9 8 7 5 14 17 15 21 10 9 26 26 33 31 29 31 36 39 44 48
61 62 63 63 54 51 53 49 46 46 40 36 31 28 24 20 17 15 14 13 10 8 13 13 14 17 15 24 25 27 32 34 30 37 37 38 40 42
61 61 63 57 53 53 51 47 45 42 40 39 33 28 26 24 22 20 18 15 10 9 10 10 12 16 20 25 20 32 32 31 31 39 41 42 41 41
60 59 60 55 52 47 46 43 44 42 44 39 33 30 29 27 26 23 20 15 12 10 8 7 9 14 19 22 26 30 35 30 33 39 43 43 43 44
51 50 49 43 46 47 49 52 46 46 43 38 33 31 33 30 29 26 23 18 14 12 9 8 11 14 17 21 25 27 27 26 37 40 44 41 37 36
49 52 53 56 54 54 56 49 51 51 48 41 39 39 34 33 31 28 26 21 17 15 12 11 11 14 18 20 21 23 27 29 35 40 41 41 38 35
61 54 57 59 57 63 64 65 59 54 52 47 42 38 37 37 33 31 27 23 21 17 14 13 13 13 12 10 16 23 26 34 38 39 35 40 44 41
47 59 54 52 58 62 57 59 60 58 51 46 43 42 40 37 36 33 30 27 23 19 16 14 14 17 16 17 18 17 29 33 39 41 40 39 48 52
61 57 60 58 53 56 59 60 60 58 52 47 44 44 43 42 40 37 33 30 25 22 19 17 16 20 21 21 28 26 24 29 34 42 48 51 52 51
59 66 66 61 60 54 54 55 59 56 50 47 45 44 44 42 41 38 34 31 28 26 23 19 21 25 28 31 34 33 32 30 28 36 44 53 55 59
57 64 66 67 63 59 57 53 56 53 52 48 45 41 40 42 42 39 37 34 31 30 29 26 26 28 31 33 36 38 38 39 39 32 30 36 46 48
59 55 57 51 58 54 52 54 58 56 54 50 46 41 39 42 41 41 38 39 38 37 35 34 33 34 34 35 39 41 42 44 44 47 43 38 40 44
Wind_Direction_850mb
241 242 244 248 251 250 246 239 225 216 219 238 241 252 280 312 329 342 348 348 354 353 356 0 1 359 359 360 360 354 349 344 341 337 337 335 335 339
241 243 245 247 247 246 244 239 232 229 225 238 238 246 273 298 316 329 338 343 345 347 349 350 351 353 356 358 358 352 350 346 343 343 341 335 334 336
241 241 242 241 241 240 238 236 234 233 235 236 236 243 263 283 302 315 326 334 336 340 343 346 350 353 358 359 360 354 350 347 347 347 342 338 335 335
240 240 239 238 236 235 235 233 233 232 234 235 234 238 247 260 278 297 316 325 331 334 339 344 347 352 356 359 355 354 351 348 348 346 343 340 339 337
239 237 237 234 232 230 231 232 233 240 240 237 236 239 243 249 264 285 304 318 324 329 339 341 345 354 357 356 349 351 349 349 347 350 347 343 341 339
236 234 233 233 231 226 221 234 245 241 235 232 232 232 235 241 249 266 285 301 313 327 338 344 348 350 353 353 344 344 346 346 350 354 353 347 344 341
236 233 231 229 227 224 238 250 237 235 233 225 221 223 228 234 238 252 268 296 305 319 336 333 338 341 344 346 339 339 342 345 346 350 351 348 349 347
235 232 229 226 228 245 244 224 235 238 232 227 225 225 230 234 243 254 269 285 271 311 331 324 337 344 342 340 336 338 344 342 342 344 345 344 347 349
234 231 229 229 243 228 223 231 230 228 228 229 231 228 227 229 234 244 258 283 296 309 328 325 333 345 339 328 332 336 336 334 336 338 340 340 339 346
245 249 244 242 235 229 227 221 230 232 227 224 223 224 222 223 223 231 248 279 303 318 335 325 328 335 339 329 334 334 337 336 334 333 339 341 337 341
243 242 243 240 232 226 217 219 220 218 220 222 219 216 219 224 222 232 256 288 283 291 307 342 330 339 354 359 333 338 347 344 340 336 338 341 339 338
241 241 237 231 225 211 217 218 218 222 226 216 213 215 215 221 221 228 237 237 260 299 293 344 341 351 349 318 344 353 353 352 348 344 343 342 343 344
241 239 236 230 211 212 218 220 223 227 217 214 214 215 216 224 229 227 225 231 247 262 293 330 340 352 351 329 348 352 356 353 354 351 351 351 347 349
244 241 234 220 206 207 216 219 216 215 212 211 208 208 213 221 227 223 227 237 241 255 289 323 341 352 350 353 343 349 355 355 353 351 352 353 350 349
241 237 228 219 213 209 209 221 210 208 212 210 207 209 215 221 221 221 228 227 233 248 264 300 331 344 349 348 340 348 347 355 349 348 348 350 350 350
228 218 208 209 210 211 201 216 217 212 217 212 206 209 217 217 215 219 219 215 222 240 254 288 318 334 342 345 343 346 349 341 343 344 343 344 347 346
221 215 204 203 200 203 201 201 214 215 217 211 212 219 220 216 215 216 214 212 212 221 245 278 301 317 330 337 339 340 342 345 344 346 344 342 343 342
216 213 213 213 207 210 214 214 217 219 220 219 221 223 220 214 216 216 214 214 217 220 231 248 273 293 313 324 335 338 343 341 342 345 345 337 338 344
220 219 215 215 215 216 216 218 212 213 220 225 225 222 217 216 217 218 218 219 223 232 244 262 284 302 317 320 329 340 337 341 337 338 336 334 333 337
214 224 220 221 221 222 222 221 219 222 225 225 225 221 217 217 217 218 219 223 228 237 245 261 275 285 294 300 306 325 326 332 332 330 331 328 330 335
218 223 230 232 229 228 225 222 223 221 223 225 224 224 222 219 219 222 226 232 236 243 248 257 269 279 288 296 302 313 315 322 323 326 326 324 326 328
227 225 232 233 234 231 224 224 221 221 224 224 225 225 224 225 225 227 231 235 239 246 258 264 268 273 280 286 292 298 307 312 317 318 319 313 313 312
232 232 231 230 230 226 224 224 224 222 224 227 228 228 228 230 231 234 236 240 244 250 256 262 266 270 275 281 287 293 300 304 311 315 315 317 310 306